RYR32UX LEPA-LPPR

Flight info

Callsign RYR32UX
Flight time N/A
Altitude 35000
Route EPAMA N733 ARGOR/N0454F370 N733 ZMR L155 ADORO DCT INKIT
Aircraft B738/M-SDE2E3FGHIRWXY/LB1

Departure

Time 2026-05-04 17:01
Airport Palma de Mallorca Airport (LEPA)

Arrival

Time N/A
Airport Francisco de Sá Carneiro Airport (LPPR)
Time Latitude Longitude Altitude Speed Heading
2026-05-04 16:12 39.54745 2.73378 34 ft 0 kts 231°
2026-05-04 16:40 39.54747 2.73382 33 ft 3 kts 231°
2026-05-04 16:40 39.54767 2.73433 33 ft 4 kts 300°
2026-05-04 16:41 39.54748 2.73459 34 ft 0 kts 322°
2026-05-04 16:49 39.54749 2.73458 34 ft 1 kts 324°
2026-05-04 16:49 39.54753 2.73547 34 ft 9 kts 151°
2026-05-04 16:50 39.54656 2.73632 34 ft 8 kts 111°
2026-05-04 16:50 39.54723 2.73806 33 ft 14 kts 60°
2026-05-04 16:51 39.54832 2.74003 32 ft 13 kts 17°
2026-05-04 16:51 39.54904 2.73957 32 ft 3 kts 340°
2026-05-04 16:51 39.54963 2.74007 32 ft 7 kts 15°
2026-05-04 16:52 39.55146 2.73873 32 ft 23 kts 330°
2026-05-04 16:52 39.55280 2.73768 33 ft 22 kts 327°
2026-05-04 16:53 39.55495 2.73599 32 ft 21 kts 329°
2026-05-04 16:53 39.55744 2.73688 34 ft 14 kts 58°
2026-05-04 16:54 39.55796 2.73796 33 ft 14 kts 58°
2026-05-04 16:55 39.55982 2.74188 37 ft 12 kts 59°
2026-05-04 16:55 39.56109 2.74317 38 ft 11 kts 35°
2026-05-04 16:56 39.56143 2.74347 38 ft 0 kts 31°
2026-05-04 16:57 39.56165 2.74362 39 ft 5 kts 21°
2026-05-04 16:57 39.56233 2.74288 39 ft 11 kts 255°
2026-05-04 16:58 39.56215 2.74235 36 ft 0 kts 240°
2026-05-04 17:00 39.56192 2.74183 37 ft 27 kts 239°
2026-05-04 17:00 39.54997 2.71679 288 ft 159 kts 236°
2026-05-04 17:01 39.53706 2.69066 1336 ft 172 kts 235°
2026-05-04 17:01 39.52388 2.66701 2854 ft 163 kts 232°
2026-05-04 17:02 39.51085 2.64114 3568 ft 193 kts 238°
2026-05-04 17:02 39.49604 2.61074 3928 ft 211 kts 236°
2026-05-04 17:03 39.48790 2.59468 4369 ft 206 kts 237°
2026-05-04 17:03 39.48035 2.57891 4654 ft 209 kts 238°
2026-05-04 17:03 39.46426 2.54732 5341 ft 210 kts 235°
2026-05-04 17:04 39.44930 2.51446 5786 ft 224 kts 259°
2026-05-04 17:04 39.45441 2.47117 6386 ft 260 kts 277°
2026-05-04 17:05 39.46154 2.42530 7787 ft 262 kts 277°
2026-05-04 17:05 39.46227 2.42046 7940 ft 262 kts 277°
2026-05-04 17:07 39.46566 2.39781 8590 ft 264 kts 277°
2026-05-04 17:07 39.46908 2.37442 9281 ft 266 kts 276°
2026-05-04 17:08 39.47248 2.35078 9936 ft 269 kts 276°